Volver al catálogo

RADARSAT 2

ActivoCienciaSSO
NORAD 32382·PAYLOAD·🇨🇦 Canada

Lanzado Dec 14, 2007 desde Baikonur Cosmodrome

Loading…

Próximos Pases (próximas 24 horas)

TLE

ActualizadoSource: Space-Track

Época: Sep 14, 2026, 14:24 UTC

1 32382U 07061A   26257.60055191 -.00000087  00000-0 -16861-4 0  9994
2 32382  98.5814 263.2701 0001230  81.8494 278.2828 14.29982098978739

Sigue RADARSAT 2 en tiempo real con AllMySat

Download on the App Store